Location: Brunembert
(50.7122°N, 1.8935°E)
Time: 04:39:33
(UTC+00:00)

Cosmos 1943 - Pass Details

Date: 22 April 2021
Orbit: 834 x 849 km, 71.0° (Epoch: 06 May)

Event Time Altitude Azimuth Distance (km) Brightness Sun altitude
Rises 21:40:15 0° 331° (NNW) 3,396 7.9 -20.7°
Reaches altitude 10° 21:42:43 10° 334° (NNW) 2,459 6.8 -20.9°
Maximum altitude 21:48:21 70° 58° (ENE) 894 3.2 -21.4°
Enters shadow 21:50:08 44° 126° (SE) 1,154 3.4 -21.5°
